Погода в Мемьо

Мьянма     22°02′29″N   96°29′53″E
темп.,
°C
ветер,
м/с
пор.,
м/с
влажн.,
%
обл.,
%
осадки,
мм/ч
давл.,
гПа
погр.,
м
16 мая, вс
вс1600:30+22всв115891 0.0 100813
03:30+23в115979 0.0 100813
06:30+24св00625 0.0 100924
09:30+30юз22466 0.0 10101429
12:30+32зюз44388 0.0 10082585
15:30+31сз343750 0.0 10061453
18:30+27с11515 0.0 100612
21:30+25ссв11544 0.0 100812
17 мая, пн
пн1700:30+24св115193 0.0 100713
03:30+23зсз115042 0.0 100713
06:30+25зсз115823 0.0 100951
09:30+30зюз344517 0.0 10101364
12:30+33зюз34375 0.0 10082655
15:30+34з35329 0.0 10052740
18:30+28сз11479 0.0 100511
21:30+26св114915 0.0 100712
18 мая, вт
вт1800:30+25ю015087 0.0 100712
03:30+24юз1360100 0.1 100667
06:30+24зюз15726 0.8 1008207
09:30+30зюз355197 0.4 10091171
12:30+33зюз4539100 0.4 10062498
15:30+32з254068 0.0 10041339
18:30+29зюз1145100 0.0 100316
21:30+28зюз2650100 0.1 1005205
19 мая, ср
ср1900:30+24ююз1374100 1.1 100688
03:30+23ю018261 2.1 100516
06:30+24ююв148072 2.2 1007202
09:30+30ююз375199 0.0 10071173
12:30+33юз573916 0.0 10051719
15:30+34юз573627 0.0 10022624
18:30+29ююз2746100 0.0 1002181
21:30+27зюз1349100 0.1 100579
20 мая, чт
чт2000:30+26зюз3863100 0.6 1006380
03:30+23зюз127187 0.1 100642
06:30+24юз146653 0.1 1007228
09:30+29юз4549100 0.0 10081323
12:30+32зюз564499 0.0 10061954
15:30+32зюз464384 0.0 10042046
18:30+29з125194 0.0 100436
21:30+28з155375 0.1 1005286